Year,Month,Day,Hour,Minute,Value (Times are PST for temperature in C)
2013,05,01,00,00,7.20
2013,05,01,00,01,7.20
2013,05,01,00,02,7.20
2013,05,01,00,03,7.20
2013,05,01,00,04,7.20
2013,05,01,00,05,7.20
2013,05,01,00,06,7.20
2013,05,01,00,07,7.20
2013,05,01,00,08,7.20
2013,05,01,00,09,7.20
2013,05,01,00,10,7.20
2013,05,01,00,11,7.20
2013,05,01,00,12,7.20
2013,05,01,00,13,7.20
2013,05,01,00,14,7.20
2013,05,01,00,15,7.20
2013,05,01,00,16,7.20
2013,05,01,00,17,7.20
2013,05,01,00,18,7.20
2013,05,01,00,19,7.10
2013,05,01,00,20,7.10
2013,05,01,00,21,7.00
2013,05,01,00,22,7.00
2013,05,01,00,23,7.00
2013,05,01,00,24,6.90
2013,05,01,00,25,6.90
2013,05,01,00,26,6.90
2013,05,01,00,27,6.90
2013,05,01,00,28,6.90
2013,05,01,00,29,6.80
2013,05,01,00,30,6.80
2013,05,01,00,31,6.80
2013,05,01,00,32,6.80
2013,05,01,00,33,6.70
2013,05,01,00,34,6.70
2013,05,01,00,35,6.70
2013,05,01,00,36,6.70
2013,05,01,00,37,6.60
2013,05,01,00,38,6.60
2013,05,01,00,39,6.50
2013,05,01,00,40,6.50
2013,05,01,00,41,6.50
2013,05,01,00,42,6.40
2013,05,01,00,43,6.40
2013,05,01,00,44,6.30
2013,05,01,00,45,6.30
2013,05,01,00,46,6.30
2013,05,01,00,47,6.30
2013,05,01,00,48,6.30
2013,05,01,00,49,6.20
2013,05,01,00,50,6.20
2013,05,01,00,51,6.20
2013,05,01,00,52,6.10
2013,05,01,00,53,6.10
2013,05,01,00,54,6.00
2013,05,01,00,55,5.90
2013,05,01,00,56,5.80
2013,05,01,00,57,5.60
2013,05,01,00,58,5.50
2013,05,01,00,59,5.40
2013,05,01,01,00,5.40
2013,05,01,01,01,5.30
2013,05,01,01,02,5.30
2013,05,01,01,03,5.20
2013,05,01,01,04,5.20
2013,05,01,01,05,5.20
2013,05,01,01,06,5.20
2013,05,01,01,07,5.10
2013,05,01,01,08,5.10
2013,05,01,01,09,5.00
2013,05,01,01,10,5.00
2013,05,01,01,11,4.90
2013,05,01,01,12,4.90
2013,05,01,01,13,4.80
2013,05,01,01,14,4.80
2013,05,01,01,15,4.80
2013,05,01,01,16,4.70
2013,05,01,01,17,4.70
2013,05,01,01,18,4.70
2013,05,01,01,19,4.60
2013,05,01,01,20,4.60
2013,05,01,01,21,4.60
2013,05,01,01,22,4.50
2013,05,01,01,23,4.50
2013,05,01,01,24,4.50
2013,05,01,01,25,4.50
2013,05,01,01,26,4.60
2013,05,01,01,27,4.60
2013,05,01,01,28,4.60
2013,05,01,01,29,4.60
2013,05,01,01,30,4.60
2013,05,01,01,31,4.60
2013,05,01,01,32,4.60
2013,05,01,01,33,4.60
2013,05,01,01,34,4.60
2013,05,01,01,35,4.60
2013,05,01,01,36,4.60
2013,05,01,01,37,4.60
2013,05,01,01,38,4.70
2013,05,01,01,39,4.70
2013,05,01,01,40,4.70
2013,05,01,01,41,4.70
2013,05,01,01,42,4.70
2013,05,01,01,43,4.70
2013,05,01,01,44,4.70
2013,05,01,01,45,4.70
2013,05,01,01,46,4.70
2013,05,01,01,47,4.70
2013,05,01,01,48,4.70
2013,05,01,01,49,4.60
2013,05,01,01,50,4.60
2013,05,01,01,51,4.50
2013,05,01,01,52,4.40
2013,05,01,01,53,4.40
2013,05,01,01,54,4.30
2013,05,01,01,55,4.30
2013,05,01,01,56,4.20
2013,05,01,01,57,4.20
2013,05,01,01,58,4.10
2013,05,01,01,59,4.00
2013,05,01,02,00,4.00
2013,05,01,02,01,3.90
2013,05,01,02,02,3.80
2013,05,01,02,03,3.80
2013,05,01,02,04,3.80
2013,05,01,02,05,3.80
2013,05,01,02,06,3.80
2013,05,01,02,07,3.80
2013,05,01,02,08,3.70
2013,05,01,02,09,3.70
2013,05,01,02,10,3.70
2013,05,01,02,11,3.60
2013,05,01,02,12,3.60
2013,05,01,02,13,3.60
2013,05,01,02,14,3.60
2013,05,01,02,15,3.60
2013,05,01,02,16,3.60
2013,05,01,02,17,3.60
2013,05,01,02,18,3.50
2013,05,01,02,19,3.50
2013,05,01,02,20,3.50
2013,05,01,02,21,3.40
2013,05,01,02,22,3.40
2013,05,01,02,23,3.40
2013,05,01,02,24,3.40
2013,05,01,02,25,3.40
2013,05,01,02,26,3.40
2013,05,01,02,27,3.40
2013,05,01,02,28,3.40
2013,05,01,02,29,3.50
2013,05,01,02,30,3.40
2013,05,01,02,31,3.40
2013,05,01,02,32,3.40
2013,05,01,02,33,3.50
2013,05,01,02,34,3.40
2013,05,01,02,35,3.40
2013,05,01,02,36,3.40
2013,05,01,02,37,3.40
2013,05,01,02,38,3.40
2013,05,01,02,39,3.30
2013,05,01,02,40,3.30
2013,05,01,02,41,3.30
2013,05,01,02,42,3.20
2013,05,01,02,43,3.20
2013,05,01,02,44,3.20
2013,05,01,02,45,3.20
2013,05,01,02,46,3.20
2013,05,01,02,47,3.20
2013,05,01,02,48,3.10
2013,05,01,02,49,3.10
2013,05,01,02,50,3.10
2013,05,01,02,51,3.10
2013,05,01,02,52,3.10
2013,05,01,02,53,3.10
2013,05,01,02,54,3.10
2013,05,01,02,55,3.00
2013,05,01,02,56,3.00
2013,05,01,02,57,3.00
2013,05,01,02,58,2.90
2013,05,01,02,59,2.90
2013,05,01,03,00,2.90
2013,05,01,03,01,2.90
2013,05,01,03,02,2.90
2013,05,01,03,03,2.90
2013,05,01,03,04,2.80
2013,05,01,03,05,2.80
2013,05,01,03,06,2.80
2013,05,01,03,07,2.80
2013,05,01,03,08,2.70
2013,05,01,03,09,2.70
2013,05,01,03,10,2.70
2013,05,01,03,11,2.70
2013,05,01,03,12,2.60
2013,05,01,03,13,2.60
2013,05,01,03,14,2.60
2013,05,01,03,15,2.60
2013,05,01,03,16,2.50
2013,05,01,03,17,2.50
2013,05,01,03,18,2.50
2013,05,01,03,19,2.40
2013,05,01,03,20,2.40
2013,05,01,03,21,2.40
2013,05,01,03,22,2.40
2013,05,01,03,23,2.40
2013,05,01,03,24,2.30
2013,05,01,03,25,2.30
2013,05,01,03,26,2.30
2013,05,01,03,27,2.30
2013,05,01,03,28,2.30
2013,05,01,03,29,2.30
2013,05,01,03,30,2.30
2013,05,01,03,31,2.30
2013,05,01,03,32,2.30
2013,05,01,03,33,2.30
2013,05,01,03,34,2.20
2013,05,01,03,35,2.20
2013,05,01,03,36,2.20
2013,05,01,03,37,2.20
2013,05,01,03,38,2.20
2013,05,01,03,39,2.20
2013,05,01,03,40,2.20
2013,05,01,03,41,2.20
2013,05,01,03,42,2.20
2013,05,01,03,43,2.20
2013,05,01,03,44,2.20
2013,05,01,03,45,2.10
2013,05,01,03,46,2.10
2013,05,01,03,47,2.10
2013,05,01,03,48,2.10
2013,05,01,03,49,2.10
2013,05,01,03,50,2.10
2013,05,01,03,51,2.10
2013,05,01,03,52,2.10
2013,05,01,03,53,2.10
2013,05,01,03,54,2.10
2013,05,01,03,55,2.10
2013,05,01,03,56,2.10
2013,05,01,03,57,2.10
2013,05,01,03,58,2.10
2013,05,01,03,59,2.00
2013,05,01,04,00,2.00
2013,05,01,04,01,2.00
2013,05,01,04,02,2.00
2013,05,01,04,03,2.00
2013,05,01,04,04,1.90
2013,05,01,04,05,1.90
2013,05,01,04,06,1.90
2013,05,01,04,07,1.90
2013,05,01,04,08,1.90
2013,05,01,04,09,1.90
2013,05,01,04,10,1.90
2013,05,01,04,11,1.90
2013,05,01,04,12,1.90
2013,05,01,04,13,1.90
2013,05,01,04,14,1.90
2013,05,01,04,15,1.80
2013,05,01,04,16,1.80
2013,05,01,04,17,1.80
2013,05,01,04,18,1.70
2013,05,01,04,19,1.70
2013,05,01,04,20,1.70
2013,05,01,04,21,1.70
2013,05,01,04,22,1.80
2013,05,01,04,23,1.80
2013,05,01,04,24,1.70
2013,05,01,04,25,1.70
2013,05,01,04,26,1.70
2013,05,01,04,27,1.70
2013,05,01,04,28,1.60
2013,05,01,04,29,1.60
2013,05,01,04,30,1.60
2013,05,01,04,31,1.60
2013,05,01,04,32,1.60
2013,05,01,04,33,1.50
2013,05,01,04,34,1.50
2013,05,01,04,35,1.50
2013,05,01,04,36,1.40
2013,05,01,04,37,1.40
2013,05,01,04,38,1.40
2013,05,01,04,39,1.40
2013,05,01,04,40,1.40
2013,05,01,04,41,1.40
2013,05,01,04,42,1.40
2013,05,01,04,43,1.30
2013,05,01,04,44,1.30
2013,05,01,04,45,1.30
2013,05,01,04,46,1.30
2013,05,01,04,47,1.30
2013,05,01,04,48,1.40
2013,05,01,04,49,1.40
2013,05,01,04,50,1.40
2013,05,01,04,51,1.40
2013,05,01,04,52,1.40
2013,05,01,04,53,1.40
2013,05,01,04,54,1.40
2013,05,01,04,55,1.40
2013,05,01,04,56,1.40
2013,05,01,04,57,1.40
2013,05,01,04,58,1.40
2013,05,01,04,59,1.40
2013,05,01,05,00,1.40
2013,05,01,05,01,1.50
2013,05,01,05,02,1.40
2013,05,01,05,03,1.50
2013,05,01,05,04,1.50
2013,05,01,05,05,1.50
2013,05,01,05,06,1.50
2013,05,01,05,07,1.50
2013,05,01,05,08,1.50
2013,05,01,05,09,1.50
2013,05,01,05,10,1.50
2013,05,01,05,11,1.50
2013,05,01,05,12,1.50
2013,05,01,05,13,1.50
2013,05,01,05,14,1.40
2013,05,01,05,15,1.40
2013,05,01,05,16,1.40
2013,05,01,05,17,1.40
2013,05,01,05,18,1.40
2013,05,01,05,19,1.40
2013,05,01,05,20,1.40
2013,05,01,05,21,1.40
2013,05,01,05,22,1.40
2013,05,01,05,23,1.40
2013,05,01,05,24,1.40
2013,05,01,05,25,1.40
2013,05,01,05,26,1.40
2013,05,01,05,27,1.40
2013,05,01,05,28,1.40
2013,05,01,05,29,1.30
2013,05,01,05,30,1.30
2013,05,01,05,31,1.30
2013,05,01,05,32,1.30
2013,05,01,05,33,1.30
2013,05,01,05,34,1.30
2013,05,01,05,35,1.30
2013,05,01,05,36,1.30
2013,05,01,05,37,1.30
2013,05,01,05,38,1.30
2013,05,01,05,39,1.30
2013,05,01,05,40,1.20
2013,05,01,05,41,1.20
2013,05,01,05,42,1.30
2013,05,01,05,43,1.30
2013,05,01,05,44,1.30
2013,05,01,05,45,1.20
2013,05,01,05,46,1.20
2013,05,01,05,47,1.20
2013,05,01,05,48,1.20
2013,05,01,05,49,1.20
2013,05,01,05,50,1.20
2013,05,01,05,51,1.20
2013,05,01,05,52,1.20
2013,05,01,05,53,1.20
2013,05,01,05,54,1.20
2013,05,01,05,55,1.20
2013,05,01,05,56,1.10
2013,05,01,05,57,1.10
2013,05,01,05,58,1.10
2013,05,01,05,59,1.10
2013,05,01,06,00,1.10
2013,05,01,06,01,1.10
2013,05,01,06,02,1.10
2013,05,01,06,03,1.10
2013,05,01,06,04,1.10
2013,05,01,06,05,1.10
2013,05,01,06,06,1.10
2013,05,01,06,07,1.10
2013,05,01,06,08,1.10
2013,05,01,06,09,1.10
2013,05,01,06,10,1.10
2013,05,01,06,11,1.10
2013,05,01,06,12,1.10
2013,05,01,06,13,1.10
2013,05,01,06,14,1.10
2013,05,01,06,15,1.10
2013,05,01,06,16,1.00
2013,05,01,06,17,1.00
2013,05,01,06,18,1.00
2013,05,01,06,19,1.00
2013,05,01,06,20,1.00
2013,05,01,06,21,1.00
2013,05,01,06,22,1.00
2013,05,01,06,23,1.10
2013,05,01,06,24,1.10
2013,05,01,06,25,1.20
2013,05,01,06,26,1.20
2013,05,01,06,27,1.30
2013,05,01,06,28,1.30
2013,05,01,06,29,1.30
2013,05,01,06,30,1.30
2013,05,01,06,31,1.40
2013,05,01,06,32,1.40
2013,05,01,06,33,1.40
2013,05,01,06,34,1.40
2013,05,01,06,35,1.40
2013,05,01,06,36,1.40
2013,05,01,06,37,1.40
2013,05,01,06,38,1.40
2013,05,01,06,39,1.40
2013,05,01,06,40,1.40
2013,05,01,06,41,1.40
2013,05,01,06,42,1.40
2013,05,01,06,43,1.50
2013,05,01,06,44,1.50
2013,05,01,06,45,1.60
2013,05,01,06,46,1.70
2013,05,01,06,47,1.70
2013,05,01,06,48,1.80
2013,05,01,06,49,1.90
2013,05,01,06,50,1.90
2013,05,01,06,51,2.00
2013,05,01,06,52,2.00
2013,05,01,06,53,2.00
2013,05,01,06,54,2.10
2013,05,01,06,55,2.10
2013,05,01,06,56,2.10
2013,05,01,06,57,2.10
2013,05,01,06,58,2.10
2013,05,01,06,59,2.10
2013,05,01,07,00,2.10
2013,05,01,07,01,2.10
2013,05,01,07,02,2.10
2013,05,01,07,03,2.10
2013,05,01,07,04,2.10
2013,05,01,07,05,2.10
2013,05,01,07,06,2.10
2013,05,01,07,07,2.10
2013,05,01,07,08,2.10
2013,05,01,07,09,2.10
2013,05,01,07,10,2.10
2013,05,01,07,11,2.20
2013,05,01,07,12,2.20
2013,05,01,07,13,2.30
2013,05,01,07,14,2.30
2013,05,01,07,15,2.30
2013,05,01,07,16,2.40
2013,05,01,07,17,2.40
2013,05,01,07,18,2.50
2013,05,01,07,19,2.50
2013,05,01,07,20,2.60
2013,05,01,07,21,2.70
2013,05,01,07,22,2.70
2013,05,01,07,23,2.80
2013,05,01,07,24,2.90
2013,05,01,07,25,2.90
2013,05,01,07,26,3.00
2013,05,01,07,27,3.10
2013,05,01,07,28,3.20
2013,05,01,07,29,3.20
2013,05,01,07,30,3.30
2013,05,01,07,31,3.30
2013,05,01,07,32,3.40
2013,05,01,07,33,3.50
2013,05,01,07,34,3.50
2013,05,01,07,35,3.60
2013,05,01,07,36,3.60
2013,05,01,07,37,3.70
2013,05,01,07,38,3.80
2013,05,01,07,39,3.80
2013,05,01,07,40,3.90
2013,05,01,07,41,4.00
2013,05,01,07,42,4.10
2013,05,01,07,43,4.20
2013,05,01,07,44,4.30
2013,05,01,07,45,4.40
2013,05,01,07,46,4.50
2013,05,01,07,47,4.60
2013,05,01,07,48,4.70
2013,05,01,07,49,4.80
2013,05,01,07,50,4.90
2013,05,01,07,51,5.00
2013,05,01,07,52,5.10
2013,05,01,07,53,5.10
2013,05,01,07,54,5.20
2013,05,01,07,55,5.30
2013,05,01,07,56,5.30
2013,05,01,07,57,5.40
2013,05,01,07,58,5.40
2013,05,01,07,59,5.50
2013,05,01,08,00,5.50
2013,05,01,08,01,5.60
2013,05,01,08,02,5.60
2013,05,01,08,03,5.70
2013,05,01,08,04,5.70
2013,05,01,08,05,5.80
2013,05,01,08,06,5.80
2013,05,01,08,07,5.90
2013,05,01,08,08,6.00
2013,05,01,08,09,6.00
2013,05,01,08,10,6.10
2013,05,01,08,11,6.10
2013,05,01,08,12,6.20
2013,05,01,08,13,6.30
2013,05,01,08,14,6.30
2013,05,01,08,15,6.40
2013,05,01,08,16,6.50
2013,05,01,08,17,6.60
2013,05,01,08,18,6.60
2013,05,01,08,19,6.70
2013,05,01,08,20,6.80
2013,05,01,08,21,6.80
2013,05,01,08,22,6.90
2013,05,01,08,23,7.00
2013,05,01,08,24,7.00
2013,05,01,08,25,7.10
2013,05,01,08,26,7.20
2013,05,01,08,27,7.30
2013,05,01,08,28,7.40
2013,05,01,08,29,7.60
2013,05,01,08,30,7.70
2013,05,01,08,31,7.80
2013,05,01,08,32,7.90
2013,05,01,08,33,8.00
2013,05,01,08,34,8.10
2013,05,01,08,35,8.20
2013,05,01,08,36,8.20
2013,05,01,08,37,8.30
2013,05,01,08,38,8.40
2013,05,01,08,39,8.50
2013,05,01,08,40,8.60
2013,05,01,08,41,8.70
2013,05,01,08,42,8.70
2013,05,01,08,43,8.80
2013,05,01,08,44,8.90
2013,05,01,08,45,9.00
2013,05,01,08,46,9.10
2013,05,01,08,47,9.20
2013,05,01,08,48,9.30
2013,05,01,08,49,9.30
2013,05,01,08,50,9.40
2013,05,01,08,51,9.50
2013,05,01,08,52,9.60
2013,05,01,08,53,9.60
2013,05,01,08,54,9.60
2013,05,01,08,55,9.60
2013,05,01,08,56,9.60
2013,05,01,08,57,9.70
2013,05,01,08,58,9.70
2013,05,01,08,59,9.80
2013,05,01,09,00,9.90
2013,05,01,09,01,10.00
2013,05,01,09,02,10.00
2013,05,01,09,03,10.10
2013,05,01,09,04,10.20
2013,05,01,09,05,10.30
2013,05,01,09,06,10.30
2013,05,01,09,07,10.20
2013,05,01,09,08,10.00
2013,05,01,09,09,9.90
2013,05,01,09,10,9.90
2013,05,01,09,11,9.90
2013,05,01,09,12,10.00
2013,05,01,09,13,10.10
2013,05,01,09,14,10.20
2013,05,01,09,15,10.30
2013,05,01,09,16,10.40
2013,05,01,09,17,10.40
2013,05,01,09,18,10.50
2013,05,01,09,19,10.60
2013,05,01,09,20,10.60
2013,05,01,09,21,10.70
2013,05,01,09,22,10.70
2013,05,01,09,23,10.70
2013,05,01,09,24,10.80
2013,05,01,09,25,10.90
2013,05,01,09,26,10.90
2013,05,01,09,27,10.90
2013,05,01,09,28,11.00
2013,05,01,09,29,11.00
2013,05,01,09,30,11.00
2013,05,01,09,31,11.10
2013,05,01,09,32,11.10
2013,05,01,09,33,11.10
2013,05,01,09,34,11.10
2013,05,01,09,35,11.10
2013,05,01,09,36,11.10
2013,05,01,09,37,11.10
2013,05,01,09,38,11.20
2013,05,01,09,39,11.20
2013,05,01,09,40,11.10
2013,05,01,09,41,11.10
2013,05,01,09,42,11.10
2013,05,01,09,43,11.10
2013,05,01,09,44,11.00
2013,05,01,09,45,11.00
2013,05,01,09,46,10.90
2013,05,01,09,47,10.90
2013,05,01,09,48,10.90
2013,05,01,09,49,10.90
2013,05,01,09,50,10.90
2013,05,01,09,51,10.80
2013,05,01,09,52,10.80
2013,05,01,09,53,10.70
2013,05,01,09,54,10.60
2013,05,01,09,55,10.50
2013,05,01,09,56,10.40
2013,05,01,09,57,10.30
2013,05,01,09,58,10.20
2013,05,01,09,59,10.20
2013,05,01,10,00,10.20
2013,05,01,10,01,10.30
2013,05,01,10,02,10.30
2013,05,01,10,03,10.40
2013,05,01,10,04,10.40
2013,05,01,10,05,10.40
2013,05,01,10,06,10.40
2013,05,01,10,07,10.40
2013,05,01,10,08,10.40
2013,05,01,10,09,10.50
2013,05,01,10,10,10.60
2013,05,01,10,11,10.70
2013,05,01,10,12,10.70
2013,05,01,10,13,10.80
2013,05,01,10,14,10.80
2013,05,01,10,15,10.80
2013,05,01,10,16,10.90
2013,05,01,10,17,10.90
2013,05,01,10,18,10.90
2013,05,01,10,19,10.90
2013,05,01,10,20,10.90
2013,05,01,10,21,10.90
2013,05,01,10,22,10.90
2013,05,01,10,23,10.90
2013,05,01,10,24,11.00
2013,05,01,10,25,11.10
2013,05,01,10,26,11.00
2013,05,01,10,27,10.90
2013,05,01,10,28,10.80
2013,05,01,10,29,10.70
2013,05,01,10,30,10.70
2013,05,01,10,31,10.70
2013,05,01,10,32,10.70
2013,05,01,10,33,10.60
2013,05,01,10,34,10.50
2013,05,01,10,35,10.50
2013,05,01,10,36,10.40
2013,05,01,10,37,10.40
2013,05,01,10,38,10.50
2013,05,01,10,39,10.50
2013,05,01,10,40,10.70
2013,05,01,10,41,10.80
2013,05,01,10,42,10.90
2013,05,01,10,43,11.00
2013,05,01,10,44,11.00
2013,05,01,10,45,11.00
2013,05,01,10,46,10.90
2013,05,01,10,47,10.80
2013,05,01,10,48,10.70
2013,05,01,10,49,10.60
2013,05,01,10,50,10.60
2013,05,01,10,51,10.50
2013,05,01,10,52,10.60
2013,05,01,10,53,10.70
2013,05,01,10,54,10.70
2013,05,01,10,55,10.80
2013,05,01,10,56,10.90
2013,05,01,10,57,11.00
2013,05,01,10,58,11.10
2013,05,01,10,59,11.20
2013,05,01,11,00,11.40
2013,05,01,11,01,11.50
2013,05,01,11,02,11.60
2013,05,01,11,03,11.70
2013,05,01,11,04,11.70
2013,05,01,11,05,11.80
2013,05,01,11,06,11.80
2013,05,01,11,07,11.80
2013,05,01,11,08,11.80
2013,05,01,11,09,11.70
2013,05,01,11,10,11.70
2013,05,01,11,11,11.70
2013,05,01,11,12,11.80
2013,05,01,11,13,11.80
2013,05,01,11,14,11.90
2013,05,01,11,15,12.00
2013,05,01,11,16,12.00
2013,05,01,11,17,12.00
2013,05,01,11,18,12.10
2013,05,01,11,19,12.10
2013,05,01,11,20,12.10
2013,05,01,11,21,12.10
2013,05,01,11,22,12.10
2013,05,01,11,23,12.00
2013,05,01,11,24,11.80
2013,05,01,11,25,11.70
2013,05,01,11,26,11.70
2013,05,01,11,27,11.70
2013,05,01,11,28,11.80
2013,05,01,11,29,11.80
2013,05,01,11,30,11.90
2013,05,01,11,31,11.90
2013,05,01,11,32,11.90
2013,05,01,11,33,11.80
2013,05,01,11,34,11.80
2013,05,01,11,35,11.80
2013,05,01,11,36,11.90
2013,05,01,11,37,11.90
2013,05,01,11,38,12.00
2013,05,01,11,39,12.10
2013,05,01,11,40,12.10
2013,05,01,11,41,12.00
2013,05,01,11,42,11.90
2013,05,01,11,43,11.80
2013,05,01,11,44,11.70
2013,05,01,11,45,11.80
2013,05,01,11,46,11.80
2013,05,01,11,47,12.00
2013,05,01,11,48,12.10
2013,05,01,11,49,12.20
2013,05,01,11,50,12.30
2013,05,01,11,51,12.30
2013,05,01,11,52,12.30
2013,05,01,11,53,12.40
2013,05,01,11,54,12.40
2013,05,01,11,55,12.50
2013,05,01,11,56,12.60
2013,05,01,11,57,12.70
2013,05,01,11,58,12.80
2013,05,01,11,59,12.90
2013,05,01,12,00,13.00
2013,05,01,12,01,13.10
2013,05,01,12,02,13.10
2013,05,01,12,03,13.10
2013,05,01,12,04,13.20
2013,05,01,12,05,13.20
2013,05,01,12,06,13.30
2013,05,01,12,07,13.40
2013,05,01,12,08,13.40
2013,05,01,12,09,13.50
2013,05,01,12,10,13.50
2013,05,01,12,11,13.30
2013,05,01,12,12,13.20
2013,05,01,12,13,13.00
2013,05,01,12,14,12.80
2013,05,01,12,15,12.70
2013,05,01,12,16,12.60
2013,05,01,12,17,12.70
2013,05,01,12,18,12.80
2013,05,01,12,19,12.80
2013,05,01,12,20,12.80
2013,05,01,12,21,12.80
2013,05,01,12,22,12.90
2013,05,01,12,23,12.90
2013,05,01,12,24,13.00
2013,05,01,12,25,13.00
2013,05,01,12,26,13.00
2013,05,01,12,27,12.90
2013,05,01,12,28,12.80
2013,05,01,12,29,12.80
2013,05,01,12,30,12.80
2013,05,01,12,31,12.90
2013,05,01,12,32,12.90
2013,05,01,12,33,12.80
2013,05,01,12,34,12.60
2013,05,01,12,35,12.40
2013,05,01,12,36,12.30
2013,05,01,12,37,12.30
2013,05,01,12,38,12.20
2013,05,01,12,39,12.20
2013,05,01,12,40,12.20
2013,05,01,12,41,12.20
2013,05,01,12,42,12.10
2013,05,01,12,43,12.00
2013,05,01,12,44,12.00
2013,05,01,12,45,12.00
2013,05,01,12,46,12.10
2013,05,01,12,47,12.10
2013,05,01,12,48,12.10
2013,05,01,12,49,12.20
2013,05,01,12,50,12.20
2013,05,01,12,51,12.20
2013,05,01,12,52,12.10
2013,05,01,12,53,12.10
2013,05,01,12,54,12.10
2013,05,01,12,55,12.20
2013,05,01,12,56,12.30
2013,05,01,12,57,12.40
2013,05,01,12,58,12.40
2013,05,01,12,59,12.50
2013,05,01,13,00,12.50
2013,05,01,13,01,12.50
2013,05,01,13,02,12.40
2013,05,01,13,03,12.40
2013,05,01,13,04,12.30
2013,05,01,13,05,12.20
2013,05,01,13,06,12.30
2013,05,01,13,07,12.30
2013,05,01,13,08,12.30
2013,05,01,13,09,12.30
2013,05,01,13,10,12.40
2013,05,01,13,11,12.40
2013,05,01,13,12,12.50
2013,05,01,13,13,12.60
2013,05,01,13,14,12.60
2013,05,01,13,15,12.60
2013,05,01,13,16,12.60
2013,05,01,13,17,12.70
2013,05,01,13,18,12.70
2013,05,01,13,19,12.70
2013,05,01,13,20,12.70
2013,05,01,13,21,12.70
2013,05,01,13,22,12.70
2013,05,01,13,23,12.70
2013,05,01,13,24,12.70
2013,05,01,13,25,12.60
2013,05,01,13,26,12.50
2013,05,01,13,27,12.50
2013,05,01,13,28,12.40
2013,05,01,13,29,12.30
2013,05,01,13,30,12.30
2013,05,01,13,31,12.30
2013,05,01,13,32,12.30
2013,05,01,13,33,12.40
2013,05,01,13,34,12.50
2013,05,01,13,35,12.60
2013,05,01,13,36,12.60
2013,05,01,13,37,12.60
2013,05,01,13,38,12.70
2013,05,01,13,39,12.80
2013,05,01,13,40,12.80
2013,05,01,13,41,12.80
2013,05,01,13,42,12.90
2013,05,01,13,43,13.00
2013,05,01,13,44,13.20
2013,05,01,13,45,13.30
2013,05,01,13,46,13.40
2013,05,01,13,47,13.50
2013,05,01,13,48,13.50
2013,05,01,13,49,13.60
2013,05,01,13,50,13.50
2013,05,01,13,51,13.40
2013,05,01,13,52,13.20
2013,05,01,13,53,13.10
2013,05,01,13,54,13.10
2013,05,01,13,55,13.20
2013,05,01,13,56,13.30
2013,05,01,13,57,13.30
2013,05,01,13,58,13.30
2013,05,01,13,59,13.20
2013,05,01,14,00,13.20
2013,05,01,14,01,13.10
2013,05,01,14,02,13.00
2013,05,01,14,03,13.00
2013,05,01,14,04,12.90
2013,05,01,14,05,13.00
2013,05,01,14,06,13.10
2013,05,01,14,07,13.20
2013,05,01,14,08,13.20
2013,05,01,14,09,13.30
2013,05,01,14,10,13.30
2013,05,01,14,11,13.40
2013,05,01,14,12,13.50
2013,05,01,14,13,13.40
2013,05,01,14,14,13.40
2013,05,01,14,15,13.50
2013,05,01,14,16,13.50
2013,05,01,14,17,13.60
2013,05,01,14,18,13.60
2013,05,01,14,19,13.60
2013,05,01,14,20,13.70
2013,05,01,14,21,13.80
2013,05,01,14,22,13.90
2013,05,01,14,23,14.00
2013,05,01,14,24,14.00
2013,05,01,14,25,14.10
2013,05,01,14,26,14.20
2013,05,01,14,27,14.30
2013,05,01,14,28,14.20
2013,05,01,14,29,14.20
2013,05,01,14,30,14.20
2013,05,01,14,31,14.30
2013,05,01,14,32,14.40
2013,05,01,14,33,14.50
2013,05,01,14,34,14.50
2013,05,01,14,35,14.60
2013,05,01,14,36,14.70
2013,05,01,14,37,14.60
2013,05,01,14,38,14.60
2013,05,01,14,39,14.30
2013,05,01,14,40,14.00
2013,05,01,14,41,13.60
2013,05,01,14,42,13.30
2013,05,01,14,43,13.10
2013,05,01,14,44,13.00
2013,05,01,14,45,12.90
2013,05,01,14,46,12.80
2013,05,01,14,47,12.80
2013,05,01,14,48,12.70
2013,05,01,14,49,12.70
2013,05,01,14,50,12.70
2013,05,01,14,51,12.70
2013,05,01,14,52,12.80
2013,05,01,14,53,12.70
2013,05,01,14,54,12.70
2013,05,01,14,55,12.70
2013,05,01,14,56,12.60
2013,05,01,14,57,12.60
2013,05,01,14,58,12.60
2013,05,01,14,59,12.70
2013,05,01,15,00,12.80
2013,05,01,15,01,12.70
2013,05,01,15,02,12.60
2013,05,01,15,03,12.60
2013,05,01,15,04,12.70
2013,05,01,15,05,12.80
2013,05,01,15,06,12.90
2013,05,01,15,07,13.00
2013,05,01,15,08,13.00
2013,05,01,15,09,13.00
2013,05,01,15,10,12.90
2013,05,01,15,11,12.90
2013,05,01,15,12,12.90
2013,05,01,15,13,12.90
2013,05,01,15,14,12.90
2013,05,01,15,15,12.90
2013,05,01,15,16,13.00
2013,05,01,15,17,13.10
2013,05,01,15,18,13.20
2013,05,01,15,19,13.20
2013,05,01,15,20,13.20
2013,05,01,15,21,13.30
2013,05,01,15,22,13.40
2013,05,01,15,23,13.50
2013,05,01,15,24,13.60
2013,05,01,15,25,13.70
2013,05,01,15,26,13.70
2013,05,01,15,27,13.70
2013,05,01,15,28,13.70
2013,05,01,15,29,13.70
2013,05,01,15,30,13.70
2013,05,01,15,31,13.70
2013,05,01,15,32,13.70
2013,05,01,15,33,13.70
2013,05,01,15,34,13.60
2013,05,01,15,35,13.70
2013,05,01,15,36,13.80
2013,05,01,15,37,14.00
2013,05,01,15,38,14.10
2013,05,01,15,39,14.00
2013,05,01,15,40,14.10
2013,05,01,15,41,14.20
2013,05,01,15,42,14.20
2013,05,01,15,43,14.20
2013,05,01,15,44,14.20
2013,05,01,15,45,14.40
2013,05,01,15,46,14.50
2013,05,01,15,47,14.60
2013,05,01,15,48,14.70
2013,05,01,15,49,14.70
2013,05,01,15,50,14.80
2013,05,01,15,51,15.00
2013,05,01,15,52,15.10
2013,05,01,15,53,15.30
2013,05,01,15,54,15.40
2013,05,01,15,55,15.50
2013,05,01,15,56,15.70
2013,05,01,15,57,15.80
2013,05,01,15,58,15.90
2013,05,01,15,59,16.00
2013,05,01,16,00,16.00
2013,05,01,16,01,16.00
2013,05,01,16,02,16.00
2013,05,01,16,03,15.90
2013,05,01,16,04,15.90
2013,05,01,16,05,15.90
2013,05,01,16,06,15.90
2013,05,01,16,07,15.80
2013,05,01,16,08,15.50
2013,05,01,16,09,15.20
2013,05,01,16,10,14.90
2013,05,01,16,11,14.80
2013,05,01,16,12,14.70
2013,05,01,16,13,14.60
2013,05,01,16,14,14.50
2013,05,01,16,15,14.50
2013,05,01,16,16,14.60
2013,05,01,16,17,14.60
2013,05,01,16,18,14.60
2013,05,01,16,19,14.60
2013,05,01,16,20,14.60
2013,05,01,16,21,14.60
2013,05,01,16,22,14.60
2013,05,01,16,23,14.60
2013,05,01,16,24,14.60
2013,05,01,16,25,14.70
2013,05,01,16,26,14.80
2013,05,01,16,27,14.90
2013,05,01,16,28,15.00
2013,05,01,16,29,15.10
2013,05,01,16,30,15.00
2013,05,01,16,31,14.90
2013,05,01,16,32,15.00
2013,05,01,16,33,15.00
2013,05,01,16,34,14.90
2013,05,01,16,35,14.80
2013,05,01,16,36,14.70
2013,05,01,16,37,14.70
2013,05,01,16,38,14.70
2013,05,01,16,39,14.70
2013,05,01,16,40,14.60
2013,05,01,16,41,14.60
2013,05,01,16,42,14.60
2013,05,01,16,43,14.50
2013,05,01,16,44,14.50
2013,05,01,16,45,14.40
2013,05,01,16,46,14.40
2013,05,01,16,47,14.40
2013,05,01,16,48,14.40
2013,05,01,16,49,14.50
2013,05,01,16,50,14.40
2013,05,01,16,51,14.40
2013,05,01,16,52,14.30
2013,05,01,16,53,14.30
2013,05,01,16,54,14.30
2013,05,01,16,55,14.30
2013,05,01,16,56,14.10
2013,05,01,16,57,14.10
2013,05,01,16,58,14.10
2013,05,01,16,59,14.20
2013,05,01,17,00,14.30
2013,05,01,17,01,14.40
2013,05,01,17,02,14.60
2013,05,01,17,03,14.70
2013,05,01,17,04,14.80
2013,05,01,17,05,14.90
2013,05,01,17,06,15.00
2013,05,01,17,07,15.00
2013,05,01,17,08,15.00
2013,05,01,17,09,14.90
2013,05,01,17,10,14.80
2013,05,01,17,11,14.80
2013,05,01,17,12,14.80
2013,05,01,17,13,14.80
2013,05,01,17,14,14.80
2013,05,01,17,15,14.90
2013,05,01,17,16,14.90
2013,05,01,17,17,15.00
2013,05,01,17,18,15.00
2013,05,01,17,19,15.00
2013,05,01,17,20,15.10
2013,05,01,17,21,15.00
2013,05,01,17,22,15.00
2013,05,01,17,23,15.00
2013,05,01,17,24,15.00
2013,05,01,17,25,14.90
2013,05,01,17,26,14.90
2013,05,01,17,27,14.90
2013,05,01,17,28,14.80
2013,05,01,17,29,14.80
2013,05,01,17,30,14.70
2013,05,01,17,31,14.60
2013,05,01,17,32,14.50
2013,05,01,17,33,14.40
2013,05,01,17,34,14.40
2013,05,01,17,35,14.40
2013,05,01,17,36,14.50
2013,05,01,17,37,14.60
2013,05,01,17,38,14.60
2013,05,01,17,39,14.50
2013,05,01,17,40,14.40
2013,05,01,17,41,14.30
2013,05,01,17,42,14.30
2013,05,01,17,43,14.40